sat.trackr.live / text

‹ back to catalog

STARLINK-34373

NORAD 64944 · 2025-158N

PAYLOAD ACTIVE UNKNOWN

§ Identity

Operator
Country
US
Launch date
2025-07-27
Launch site
AFWTR
Launch vehicle
Mass (kg)
RCS (m²)

Purposes: comms

External: N2YO · Heavens-Above · Gunter

§ Orbital elements

Epoch: 2026-09-20T18:57:20.327904Z

Period
93.91 min
Inclination
97.2847°
Eccentricity
0.0001430
Mean motion
15.33440486 rev/d
Perigee alt
464.6 km
Apogee alt
466.5 km
Semi-major
6,843.7 km
B*
5.1173e-4
RAAN
122.1362°
Arg perigee
87.7970°
Mean anomaly
272.3437°
Rev number
6,475

§ Raw data

STARLINK-343731 64944U 25158N   26263.78981861  .00016479  00000+0  51173-3 0  99912 64944  97.2847 122.1362 0001430  87.7970 272.3437 15.33440486 64757

JSON: /api/v1/satellites/64944 · /tle

For live sub-satellite position, see the globe view (requires WebGL).

§ Visibility from observer

Set your observer location to see the next 7 days of passes ≥ 10°. The values pass through the URL so the page stays shareable.

No JS? Fill the form by hand. The geolocation button needs JavaScript.